COSMOS 1197

Satellite information

Favourite Embed

Satellite Type and Status

PAYLOADIN ORBIT

Key statistics

Satellite COSMOS 1197 at a glance.

Uptime

16553

Days in orbit

Revolutions

≈ 12.5

Per day

Orbit

LEO

Low Earth Orbit

Inclination

74.0

Latest

Satellite identification and parameters

Extended collection of information and parameters for COSMOS 1197.

Object identification

Identified? True

Debris? False

Object name: COSMOS 1197

International designator: 1980-058F

Object number (NORAD): 11880

Object ID (CCSDS): 11880

Country: COMMONWEALTH OF INDEPENDENT STATES (CIS)

Current information (Y/N): Y

RCS size: MEDIUM

Orbital parameters

Period: 115.569 minutes

Inclination: 74.0189 deg

SMA: 7859.376 km

Apoapsis: 1491.482 km

Periapsis: 1471.0 km

RAAN: 63.47 deg

Eccentricy: 0.00130298

Argument of periapsis: 39.0223 deg

Mean anomaly: 321.1764 deg

Mean motion: 12.46007494 rev/day

Mean motion (dot): -0.00000015 rev/day2

B* drag term: 0.000008186939 1/REarth

Two-line elements (TLE)

Creation date: Nov. 1, 2025, 7:40 p.m.

Reference frame: TEME

Reference center: EARTH

Epoch: Nov. 1, 2025, 2:18 p.m. UTC

TLE line 0: 0 COSMOS 1197

TLE line 1: 1 11880U 80058F 25305.59631493 -.00000015 00000-0 81869-5 0 9998

TLE line 2: 2 11880 74.0189 63.4700 0013030 39.0223 321.1764 12.46007494 61182

Live tracking on map

Real-time ground track for satellite COSMOS 1197.

In-orbit conjunctions

There are no conjunctions computed for COSMOS 1197, at the moment. Check back to stay up to date, as we update our databases every day.

Go to all conjunctions

Associated space launch

Optical film-return reconnaissance satellite

COSMOS 1197 was lifted into orbit during the mission ‘Soyuz U | Zenit-6U 22’, on board a Soyuz U space rocket.

The launch took place on July 9, 1980, 12:40 p.m. from 41/1.

For more information about the launch, click the button.

Launch to space Soyuz U | Zenit-6U 22
Soyuz U | Zenit-6U 22

Agency: N/A

Status: Launch Successful

Launch date: July 9, 1980, 12:40 p.m. UTC

Rocket: Soyuz U

Launch pad: 41/1

Location: Plesetsk Cosmodrome, Russian Federation

...

Latest news about this satellite

There are no fresh news available about this satellite. Check back as we update our databases every day.


Newsletter sign-up

Weekly statistics, charts and insights to help you stay on top of the space industry.